Wind_Speed
3 5 6 4 5 4 8 8 2 7 9 8 8 9 6 6 7 7 9 7 3 3 8 9 9 12 12 9 17 26 25 20 21 18 16 16 13 12 14 14 13 11 9 7 7 7 8 9 11 12 12 13 14 15 14 13 13 12 11 10 9 8 7 6 7 8 8 9 9 10 11 10 11 11 10 9 8 8 7 7 7 9 12 13 14 13
2 5 7 5 5 6 10 10 8 8 9 8 8 8 7 7 7 7 6 5 4 3 6 9 12 13 13 13 10 23 23 18 23 22 19 20 16 14 14 13 11 11 8 6 5 6 6 8 9 11 12 12 13 14 13 13 13 13 12 11 11 10 8 7 5 5 6 6 7 8 9 9 10 11 11 10 10 10 11 11 11 11 12 13 15 16
4 5 7 6 9 9 9 8 9 10 9 8 8 6 7 8 7 8 7 6 6 3 5 10 12 11 13 16 12 14 20 21 25 25 22 22 18 15 14 14 10 10 9 7 6 7 7 8 9 10 11 12 13 14 13 13 14 13 12 11 11 10 9 9 7 6 5 4 4 6 8 9 10 10 11 11 11 13 13 13 12 12 13 13 13 15
4 3 4 7 7 8 9 5 5 7 7 7 7 6 7 8 7 7 7 7 8 7 9 12 11 9 12 13 13 14 17 24 26 25 24 23 20 16 14 14 10 7 9 10 9 10 9 8 9 9 11 12 12 13 14 14 14 13 13 13 12 11 9 8 7 7 6 4 3 4 5 7 8 9 11 12 13 13 13 13 12 11 13 14 13 14
6 2 5 5 5 6 8 6 6 5 6 7 8 8 7 8 10 7 8 10 10 9 10 12 11 8 10 13 13 10 13 22 23 23 21 19 19 18 16 16 14 11 11 11 11 11 11 9 9 10 10 11 11 12 13 14 13 12 13 14 13 11 10 8 7 7 5 5 4 3 3 4 6 8 11 12 13 13 14 15 14 13 15 15 15 15
4 7 4 5 5 5 7 7 6 5 5 5 7 8 8 9 11 10 10 10 8 7 8 9 9 6 8 13 13 5 11 20 19 18 16 12 14 16 16 16 16 15 12 11 13 12 10 10 10 10 11 11 11 12 13 14 12 11 12 13 11 9 9 9 8 7 5 5 4 4 3 3 4 6 8 9 10 11 13 15 15 15 16 16 17 17
2 6 1 6 6 6 7 5 7 6 5 5 4 3 8 12 12 10 8 8 7 7 7 8 8 6 8 10 10 10 3 14 15 11 11 8 5 9 14 15 14 13 13 14 15 12 10 11 11 11 10 10 11 12 14 15 13 12 12 12 10 8 7 7 7 7 5 5 5 5 5 4 4 5 6 6 8 10 11 13 15 15 16 17 18 17
2 4 5 6 5 6 6 5 7 5 3 7 7 5 8 11 11 11 8 8 8 8 9 10 10 8 8 9 9 13 11 11 16 12 13 11 9 11 12 16 16 14 15 16 15 13 11 11 11 12 11 10 10 11 13 14 13 12 12 11 10 9 6 6 6 6 6 4 4 5 6 6 7 8 7 7 9 11 11 12 13 14 16 17 18 18
4 8 3 1 4 5 5 6 6 6 5 6 8 11 12 10 8 10 9 9 8 8 8 9 11 9 7 8 8 11 13 7 14 14 14 15 19 19 15 19 21 17 17 17 14 14 13 12 11 12 12 12 11 12 12 12 11 11 10 9 8 7 6 5 5 4 5 4 3 4 5 6 7 9 9 9 10 11 11 11 12 13 14 15 18 19
2 5 7 6 4 5 6 7 8 10 8 4 6 11 12 10 9 10 9 9 8 8 9 10 10 8 6 7 7 7 9 2 8 8 8 9 14 18 18 21 22 20 20 18 16 15 14 14 12 12 13 14 13 12 12 11 10 9 9 8 8 6 5 4 3 3 4 3 3 3 5 5 7 9 9 9 9 10 11 11 12 13 13 13 16 19
6 4 3 5 6 7 10 10 10 11 11 9 8 10 10 9 9 8 8 7 7 6 8 12 12 10 9 6 5 6 5 2 5 7 8 9 11 11 14 19 20 19 21 19 16 16 16 15 13 13 13 13 14 14 12 11 10 9 7 8 8 6 6 5 3 3 3 4 4 4 6 7 8 9 10 10 9 10 11 11 12 12 13 13 15 17
10 7 6 6 6 5 8 8 10 11 10 8 7 7 7 7 7 6 6 6 6 6 7 10 10 10 9 5 6 7 6 5 4 8 8 10 14 14 14 18 20 20 21 20 17 17 19 17 14 14 12 12 14 14 13 11 10 9 7 7 7 5 4 4 3 3 4 5 6 6 7 8 9 10 11 12 11 10 11 11 12 13 14 14 14 16
6 7 7 4 8 4 5 6 7 9 9 7 7 6 6 6 5 5 6 4 6 6 6 9 8 7 7 5 10 10 9 8 5 8 10 11 14 16 18 21 22 21 22 21 18 19 21 17 15 14 13 13 14 13 13 11 10 10 9 7 7 5 5 3 2 3 4 6 8 9 9 10 10 11 11 12 12 12 12 12 13 14 14 14 14 15
5 8 10 9 6 6 1 5 5 4 4 5 6 5 5 6 5 6 6 5 7 5 4 11 10 7 6 3 8 10 4 8 9 9 13 18 20 19 20 22 21 19 20 20 18 20 22 21 20 18 15 15 14 13 13 12 11 11 10 8 6 7 7 5 2 3 4 6 8 9 10 11 11 12 12 12 13 13 12 13 13 14 14 13 13 14
6 5 5 7 3 6 2 6 5 5 6 6 6 6 5 6 5 6 5 4 7 6 5 7 6 5 4 2 3 6 7 1 9 10 8 17 24 23 19 19 19 19 20 21 20 22 24 25 25 21 17 16 15 14 14 13 13 12 10 8 7 8 7 5 5 5 5 6 6 7 9 10 12 12 12 12 13 13 13 14 14 15 15 14 14 14
7 6 2 1 3 5 5 8 5 5 6 5 6 6 6 5 4 5 7 7 8 7 6 6 5 4 3 5 4 1 3 2 4 7 4 8 16 16 14 16 21 23 22 20 21 23 24 25 23 20 19 18 16 16 16 14 13 12 10 9 9 8 6 6 7 6 6 6 6 7 9 10 11 12 12 12 13 13 14 14 14 15 15 16 16 16
6 3 3 3 3 6 8 8 5 5 5 2 4 5 4 4 5 5 6 6 6 6 6 5 5 7 4 5 1 3 4 5 4 6 6 6 8 10 11 14 20 24 23 24 25 24 23 24 24 22 22 20 18 18 18 16 13 12 10 10 9 8 6 6 7 7 7 7 8 9 9 10 11 12 12 12 12 13 13 13 14 15 15 15 17 17
6 4 3 5 8 8 6 4 6 8 8 5 3 3 3 4 6 5 5 5 5 7 5 6 8 6 4 2 3 7 3 6 7 8 9 9 11 14 15 14 16 18 21 26 28 25 23 24 25 25 24 21 20 20 19 18 14 11 9 9 7 7 7 6 6 7 8 8 8 9 9 10 11 11 12 12 12 13 13 13 13 14 15 15 15 16
4 4 6 7 8 3 5 2 7 10 11 10 7 5 3 4 4 3 4 4 5 7 5 7 9 5 2 2 1 4 4 2 5 7 6 7 10 13 15 16 18 18 20 23 24 23 23 25 26 26 24 21 21 23 21 19 15 11 10 9 7 7 7 7 8 8 9 8 8 9 9 10 10 11 11 11 12 12 12 12 12 12 13 14 14 14
3 4 6 5 4 2 2 4 6 6 9 10 8 7 5 5 5 4 4 3 4 6 6 7 7 3 1 1 2 3 3 2 6 5 4 6 6 5 6 11 16 20 24 23 20 20 20 23 24 22 20 21 23 24 22 18 15 13 12 9 8 8 7 8 9 9 9 8 7 9 9 9 10 10 10 11 12 12 11 11 12 12 12 12 12 13
4 4 5 4 3 3 4 5 5 5 6 6 5 6 5 4 5 4 4 5 5 6 6 6 5 1 2 3 3 3 2 4 6 6 6 6 7 8 10 14 15 17 24 26 23 20 18 18 20 19 19 22 24 23 21 18 15 12 11 8 7 8 8 8 9 7 7 6 6 7 8 8 9 9 9 10 11 12 12 11 11 12 12 13 13 13
5 4 5 7 4 5 7 8 8 7 5 4 5 5 5 5 4 4 5 6 5 5 6 6 6 2 3 4 5 5 5 5 7 7 7 9 11 11 11 13 10 6 13 20 21 22 21 20 21 22 24 24 23 21 18 16 14 12 10 9 8 9 8 9 9 5 4 4 5 7 8 8 8 8 9 10 11 12 13 12 12 12 12 12 13 14
3 4 6 8 7 9 12 8 6 7 9 7 7 6 6 6 4 4 5 5 4 5 5 5 5 2 3 5 3 3 3 4 6 7 8 8 9 10 11 11 8 2 4 10 15 20 22 23 23 24 25 24 21 19 17 15 13 13 12 10 9 10 9 9 8 6 5 5 6 8 9 8 8 8 9 10 11 11 12 13 14 14 13 13 13 13
1 2 6 8 7 11 14 8 6 6 9 8 8 8 7 7 7 7 7 6 5 6 6 5 5 2 4 3 3 3 4 6 9 9 7 7 7 9 11 10 9 7 6 7 11 15 18 21 23 22 22 21 18 17 16 16 14 13 12 11 10 11 11 9 8 7 7 6 6 7 9 9 9 9 10 11 11 11 12 13 14 14 14 14 13 13
1 4 5 7 7 7 9 8 6 7 7 6 7 9 9 11 11 10 8 6 6 8 9 7 6 3 4 3 3 4 4 6 8 6 5 7 7 8 12 13 15 11 9 9 9 14 15 17 20 20 18 18 16 15 17 18 15 13 13 12 11 12 12 10 8 6 6 5 6 7 8 9 9 10 11 11 11 12 13 13 13 13 13 13 12 12
2 4 4 6 7 6 7 4 2 3 4 5 8 10 11 13 12 9 7 6 6 8 9 8 7 3 5 5 3 1 1 4 6 5 7 11 9 6 8 9 15 15 10 10 9 14 15 15 18 19 19 19 18 17 18 18 15 14 13 12 13 13 12 11 9 7 6 7 7 8 9 9 10 11 11 11 11 12 13 12 12 11 12 12 12 12
4 4 7 10 9 9 10 6 3 5 7 6 8 10 11 11 12 8 6 7 7 8 8 8 9 7 4 4 2 2 2 3 5 6 9 12 8 5 5 4 9 13 8 10 12 14 15 15 17 19 21 21 20 18 18 16 15 16 14 14 16 15 13 12 10 8 7 7 8 8 9 10 10 10 12 12 12 11 10 10 9 9 10 12 13 13
5 7 9 13 13 13 16 15 13 12 11 10 11 12 12 11 12 10 8 10 9 8 8 8 10 10 7 6 6 2 2 4 6 7 9 10 6 6 7 5 7 12 10 9 13 15 16 16 18 21 23 22 20 20 19 18 17 16 14 16 18 17 14 13 11 9 8 8 8 9 9 10 10 12 12 11 9 8 8 9 8 8 9 10 13 14
5 9 9 12 15 16 17 17 17 15 13 13 12 14 14 13 14 13 12 13 11 10 10 10 12 13 10 9 10 8 5 5 8 9 9 9 8 8 9 9 9 13 13 11 14 17 18 18 20 23 24 23 21 20 19 18 17 16 16 18 18 15 12 12 10 9 8 9 9 9 10 10 11 12 11 8 7 7 8 8 7 8 9 9 11 14
6 7 9 12 14 16 17 17 17 17 15 15 15 15 15 15 16 16 14 15 15 15 14 14 16 15 11 11 11 11 11 10 9 9 8 9 10 11 14 16 15 16 17 15 15 18 19 20 22 22 22 22 21 19 18 17 16 16 17 18 18 16 13 12 11 9 8 9 10 9 10 10 9 9 8 7 7 8 8 7 8 10 10 9 11 14
5 6 8 9 10 13 16 16 17 16 15 16 18 18 17 16 16 16 15 14 14 15 15 16 16 13 10 10 11 12 12 9 8 9 8 7 8 9 11 14 16 17 17 16 16 18 21 22 23 21 21 21 19 18 18 17 16 16 16 16 17 17 14 11 10 9 8 9 10 10 10 9 9 9 8 7 8 9 8 7 8 10 10 9 11 14
5 6 7 7 8 10 12 15 16 14 14 17 19 18 19 17 14 13 13 12 13 14 14 14 13 9 8 8 7 9 9 8 8 9 8 9 11 10 11 12 13 13 13 13 14 17 22 25 24 22 22 20 19 20 19 18 17 17 16 15 15 15 13 11 9 8 8 9 10 10 10 10 9 9 9 9 9 9 10 10 10 10 9 9 11 13
6 7 7 7 7 9 12 14 13 11 12 12 12 13 16 16 14 14 14 14 14 13 10 10 9 8 8 8 7 8 9 8 8 8 9 9 10 10 10 11 11 11 11 11 11 12 17 22 23 23 23 21 20 20 20 19 18 17 17 16 14 14 12 11 10 9 8 9 11 10 10 10 10 9 9 9 9 9 11 11 11 11 11 10 11 12
9 8 6 4 4 7 11 12 10 10 10 8 6 8 11 12 14 14 14 14 14 13 11 11 10 10 10 9 9 8 8 8 8 10 11 11 10 11 11 11 12 12 11 10 10 10 11 14 18 21 22 21 20 19 19 19 17 17 17 14 11 11 11 10 10 10 10 11 11 10 9 9 9 9 9 9 10 10 10 10 11 12 12 11 10 10
9 8 6 4 4 5 7 9 9 9 9 7 7 8 9 11 12 12 13 13 13 13 14 14 13 12 11 11 12 11 11 11 11 12 12 11 10 12 11 11 12 12 10 9 8 9 9 10 11 15 19 19 18 18 19 18 16 15 16 14 11 10 10 10 10 11 11 11 10 9 9 9 9 9 9 10 10 10 10 11 12 12 12 10 9 10
10 9 6 4 5 5 5 8 9 8 8 8 9 7 8 10 10 10 11 12 12 11 11 12 12 11 12 13 14 14 14 13 12 11 12 13 14 14 11 9 9 9 8 6 6 7 8 8 8 11 15 17 17 17 18 17 15 14 15 15 13 12 12 12 12 12 12 11 10 9 9 10 10 9 9 10 10 10 11 12 11 11 11 10 9 11
12 9 4 4 5 5 7 9 9 10 10 10 9 7 6 7 9 9 8 8 10 12 11 12 12 11 12 14 14 13 12 9 8 9 9 10 12 13 9 7 7 7 7 6 6 8 8 9 9 10 12 15 16 16 16 15 15 15 15 15 15 13 13 13 13 13 12 11 11 10 10 11 11 10 9 9 9 10 11 13 13 11 10 8 8 10
15 10 6 5 5 5 7 8 8 10 10 8 7 5 4 6 9 7 7 7 9 12 13 11 10 11 11 11 11 9 5 4 6 5 2 6 4 3 5 5 7 7 7 6 7 9 9 8 9 9 11 14 15 16 15 15 15 15 15 15 15 14 14 14 13 14 13 12 11 11 11 11 10 10 10 8 7 8 11 15 15 12 9 8 8 10
19 12 6 4 4 5 7 8 8 8 7 6 6 3 3 5 6 4 6 8 9 14 18 14 11 11 10 8 7 5 3 5 6 1 5 6 4 2 2 4 6 6 7 7 8 9 7 6 7 9 11 13 14 16 17 16 15 15 16 15 15 15 15 15 15 14 13 12 12 11 12 12 12 12 11 8 7 8 11 15 14 10 9 10 9 9
14 5 3 4 5 5 6 7 7 6 5 6 8 4 3 3 1 2 6 5 3 6 11 11 8 7 7 5 5 4 5 5 2 4 5 2 1 1 3 5 6 7 7 8 8 8 6 6 7 9 10 13 14 15 16 16 16 17 17 15 16 16 16 16 15 14 13 13 12 13 12 12 12 12 11 9 7 8 12 16 15 12 12 10 7 7
6 2 3 5 5 5 7 8 7 6 6 8 10 11 6 4 3 5 6 1 5 4 2 2 3 3 4 4 5 5 5 1 4 4 1 1 2 4 6 6 7 9 9 8 7 7 6 7 8 8 10 12 13 13 15 16 17 17 16 16 16 16 15 15 15 14 13 13 13 14 13 12 12 12 12 12 10 9 12 15 14 13 12 10 7 7
2 2 3 4 4 5 6 6 7 7 6 8 11 13 9 6 5 7 4 1 1 1 1 1 3 4 4 5 5 4 2 2 2 0 1 2 3 5 6 7 8 8 8 7 6 6 6 8 10 10 10 11 13 13 14 16 17 16 15 16 17 16 15 14 14 14 13 13 13 14 14 15 14 14 14 14 11 9 11 13 13 11 10 10 8 8
2 1 2 4 4 5 6 8 9 6 4 6 9 8 6 7 6 4 2 3 4 5 5 5 5 5 6 7 6 4 3 2 3 3 3 3 4 5 6 8 8 6 6 7 6 6 7 9 11 12 11 12 13 13 14 16 17 16 14 15 16 16 15 15 13 13 13 13 14 14 13 13 13 13 13 13 11 11 12 11 12 11 9 10 10 8
5 4 3 3 2 3 6 7 4 5 6 5 6 5 6 12 13 7 4 3 4 6 6 6 6 6 6 6 6 6 5 5 4 4 4 4 3 4 5 6 7 6 6 7 7 7 9 10 10 11 12 12 13 15 16 16 16 15 15 16 16 16 15 15 13 13 13 13 12 12 12 12 13 14 13 12 11 12 15 13 10 10 9 9 10 9
6 6 2 1 1 3 6 6 7 13 17 13 8 9 11 13 17 15 11 8 5 5 7 6 4 5 6 7 7 7 6 6 6 6 5 4 3 4 4 5 6 7 6 7 6 6 8 9 9 8 9 11 13 15 16 17 17 17 16 16 16 16 15 14 13 14 14 12 10 10 10 11 12 12 12 10 9 9 12 13 10 10 10 8 7 7
6 6 4 1 1 3 8 12 14 14 15 15 15 17 20 17 12 14 15 13 11 9 9 10 8 7 8 11 11 10 9 7 7 7 6 5 5 5 3 4 5 6 7 8 7 6 8 10 11 10 11 12 14 16 17 18 19 17 16 16 16 15 15 14 14 14 14 12 10 11 11 10 11 12 11 9 8 7 8 7 6 7 10 10 7 7
3 3 2 2 2 2 3 7 9 8 10 12 12 12 19 24 20 14 13 14 12 11 11 12 10 9 9 12 13 11 9 8 8 8 7 7 7 6 5 4 5 7 8 9 8 8 9 11 12 13 13 14 15 16 16 17 17 16 15 15 16 15 15 16 15 14 13 12 11 12 12 12 13 13 13 11 9 8 10 9 7 8 10 11 9 9
2 5 3 3 5 5 6 9 11 12 13 11 6 5 11 20 23 21 17 12 11 11 12 12 10 9 9 11 12 12 11 11 11 10 9 8 8 7 7 6 7 7 8 9 9 10 11 11 12 13 14 14 15 15 15 15 15 15 15 16 16 15 16 17 15 12 11 11 11 12 13 14 15 14 14 13 11 9 11 12 11 12 13 11 10 11
4 5 5 4 4 6 10 12 12 12 11 8 4 4 7 10 14 18 16 11 8 8 10 10 9 9 10 11 11 12 12 13 14 14 12 11 9 8 8 8 8 8 9 10 10 10 11 13 13 14 14 15 16 16 15 16 16 16 16 16 15 15 17 16 14 12 11 10 11 13 14 15 15 15 14 14 13 12 12 12 12 14 14 12 10 10
4 4 4 5 5 6 7 6 4 5 7 7 7 6 4 4 8 12 11 8 5 7 10 9 6 8 12 10 9 10 11 11 12 13 13 12 10 8 8 8 8 9 9 10 11 11 12 14 14 15 15 15 16 17 17 16 16 16 17 17 16 16 17 15 12 12 12 12 13 15 15 14 14 14 14 14 14 14 14 13 12 12 13 12 11 10
8 7 6 5 7 8 11 12 8 7 10 11 10 9 6 6 8 10 10 8 4 4 9 9 6 8 11 9 8 10 10 9 10 11 13 13 11 10 10 9 9 10 10 11 12 13 13 14 15 15 15 15 16 17 17 17 17 17 17 18 19 20 19 15 13 13 14 14 16 16 15 14 14 14 14 14 14 15 15 15 15 16 16 16 15 12
Wind_Direction
215 244 236 237 244 266 315 294 332 7 325 314 306 286 277 266 262 266 268 258 219 250 266 268 265 267 264 223 174 164 168 166 157 159 166 167 169 176 186 195 192 178 166 158 156 152 152 149 139 137 132 128 132 133 133 135 137 137 135 135 139 150 159 168 183 193 200 199 194 197 203 204 205 206 208 211 205 198 192 187 207 242 254 251 249 245
234 254 258 280 328 332 321 329 2 348 315 301 290 295 305 281 271 274 260 224 201 251 285 290 287 279 275 271 212 169 173 171 161 165 170 170 169 167 181 197 185 170 169 163 170 178 176 161 141 135 134 134 135 133 136 142 141 138 136 135 132 136 142 142 162 186 201 213 211 210 213 212 212 210 211 215 216 216 214 210 212 225 240 244 247 248
206 241 276 310 350 329 306 331 344 318 302 292 281 284 285 278 286 287 262 208 198 230 265 268 273 273 272 273 255 195 180 171 168 170 167 164 164 160 177 195 180 159 165 176 195 204 195 169 148 141 143 142 136 135 138 139 140 142 141 137 134 133 135 137 144 157 174 202 216 218 223 222 218 214 213 218 226 229 224 224 230 233 237 236 234 241
242 241 336 2 355 309 294 308 313 299 284 270 272 277 274 276 282 278 278 270 271 296 300 290 288 282 277 268 260 240 192 167 165 165 161 159 162 166 173 182 184 169 168 178 196 202 192 170 157 154 147 141 137 137 137 133 135 141 144 142 139 137 136 139 143 146 157 162 178 210 223 224 223 222 224 229 236 238 232 233 240 240 241 238 229 229
276 116 62 2 327 298 290 264 234 254 261 243 244 258 272 287 291 293 304 297 285 288 291 289 286 277 276 264 255 243 160 148 150 149 150 155 159 168 170 168 181 202 196 187 198 201 187 170 162 159 148 140 139 141 137 132 132 136 137 136 138 142 139 139 143 151 165 165 166 196 213 223 229 232 239 244 247 248 245 243 244 241 239 239 235 230
294 80 68 291 282 270 271 269 264 284 292 263 249 271 295 296 287 283 289 297 291 277 274 277 279 275 272 269 265 250 133 137 145 144 146 151 151 164 175 169 173 192 203 204 208 203 182 170 164 157 151 147 150 152 144 136 138 138 128 123 126 126 126 132 143 154 170 173 179 198 212 233 243 243 253 261 261 260 255 249 247 244 239 237 238 238
278 94 119 271 288 281 265 276 285 293 310 294 271 285 299 290 283 278 271 278 279 269 276 277 279 284 282 284 289 287 207 135 135 146 148 137 140 177 185 179 177 183 192 205 208 195 179 174 168 158 152 156 162 160 151 145 147 147 136 130 129 121 114 114 119 128 145 167 186 205 220 234 247 251 261 272 270 267 264 258 252 248 243 238 235 237
229 199 197 218 265 287 274 265 261 262 287 295 307 320 303 296 297 305 295 273 275 280 276 266 265 270 271 277 280 277 260 156 139 155 154 147 187 210 191 180 189 196 193 200 201 186 181 180 173 162 156 166 169 158 152 150 150 148 138 132 131 137 139 116 106 110 117 142 176 200 218 231 243 251 253 258 267 267 266 264 259 255 251 246 240 237
227 259 278 230 242 247 256 275 291 302 279 263 299 314 319 320 306 300 290 275 278 280 271 262 265 268 262 261 256 271 273 198 148 156 158 160 183 189 178 176 187 203 208 207 201 188 184 186 179 166 166 178 174 159 157 156 150 144 138 134 133 137 136 120 119 121 116 127 164 199 217 229 241 250 253 251 259 267 268 266 264 264 261 253 247 242
268 291 343 353 287 263 297 329 329 315 304 298 315 309 311 310 287 276 271 272 275 268 267 267 263 262 266 268 258 281 300 243 143 155 159 164 181 176 172 179 182 194 209 208 200 194 191 191 185 176 181 189 181 171 168 160 152 148 146 140 137 143 142 139 149 143 141 160 180 216 229 238 244 246 250 248 249 261 268 269 267 269 270 260 250 246
248 217 248 265 255 279 309 321 309 298 304 319 320 300 290 280 268 262 259 265 271 261 261 266 267 267 265 266 257 253 271 253 166 164 163 169 182 172 170 180 178 187 203 202 197 197 196 195 190 186 189 190 184 183 181 173 163 157 150 139 144 165 164 162 185 169 174 198 200 221 231 241 249 247 248 249 246 251 261 268 269 270 272 266 257 251
251 218 205 194 186 255 293 295 283 274 274 279 281 282 285 277 267 266 264 261 267 270 271 273 283 285 268 267 282 247 218 253 224 159 169 180 178 176 176 181 184 192 202 202 199 196 195 194 190 189 192 191 191 191 189 189 177 160 158 155 155 179 181 160 175 183 200 218 217 224 231 238 247 248 250 252 251 249 252 258 264 267 267 266 263 257
275 253 251 201 159 184 269 281 273 255 245 242 248 262 273 277 279 274 269 263 257 262 298 313 320 303 270 278 301 274 204 219 225 160 183 194 180 183 185 185 189 193 197 200 199 193 192 189 186 189 195 200 203 198 194 194 182 164 168 166 151 181 240 246 185 186 205 220 225 228 233 240 246 248 251 253 254 253 252 254 256 260 263 264 264 261
256 240 239 229 178 132 189 272 274 263 259 252 257 269 274 279 285 278 275 276 267 262 327 324 318 294 266 264 312 303 219 189 191 183 198 191 187 197 196 192 196 197 201 204 198 189 188 187 189 193 196 207 211 205 200 193 179 173 174 173 163 187 230 253 233 211 211 218 229 234 238 244 248 252 254 255 256 256 255 255 255 257 262 262 261 262
278 265 233 231 182 109 176 267 287 310 304 283 277 274 263 266 270 273 280 288 286 287 292 285 279 282 279 220 282 328 18 74 189 192 207 189 189 200 198 193 198 204 209 209 201 197 197 195 195 194 194 211 220 212 207 196 186 184 177 178 192 200 217 240 239 234 227 227 235 243 246 248 251 254 256 256 258 259 258 259 259 259 260 261 261 260
271 284 291 251 119 138 233 268 287 292 280 274 280 267 255 267 265 266 275 284 297 300 281 258 246 268 242 169 197 196 70 356 202 172 173 186 187 193 190 185 193 201 206 203 196 199 202 200 200 197 194 208 222 218 214 206 196 190 179 184 201 203 207 227 236 233 232 236 239 244 249 250 252 256 257 257 259 262 264 261 260 260 259 260 261 259
265 274 105 124 173 194 230 266 271 251 268 292 273 271 288 290 273 271 272 269 279 281 272 262 261 272 240 167 34 327 185 181 185 185 211 220 200 203 207 197 193 196 201 202 200 200 200 198 200 199 195 202 217 221 220 215 206 194 190 196 199 201 206 219 235 238 235 241 243 245 251 255 256 258 258 259 260 265 270 267 264 263 260 258 259 261
277 259 192 213 239 221 200 259 271 250 265 284 267 293 326 275 258 272 283 273 269 268 261 265 270 278 275 248 344 327 254 184 199 216 222 229 220 214 214 211 207 200 199 203 204 204 202 199 201 202 198 200 212 221 222 218 211 202 203 209 206 209 216 219 234 240 238 243 249 249 249 252 258 259 260 264 264 266 269 271 270 268 267 264 262 262
292 280 278 254 246 219 142 199 271 248 238 249 271 305 304 272 263 250 269 281 276 276 277 284 288 295 304 293 312 304 296 240 245 234 226 247 238 215 200 206 217 213 209 211 208 206 207 206 207 207 205 206 214 221 221 215 211 211 215 219 219 218 222 228 236 239 239 242 247 251 248 250 259 262 262 265 265 267 269 271 272 269 268 268 264 262
258 248 280 254 213 248 177 204 258 248 218 221 252 274 257 257 270 253 247 252 262 278 282 287 297 316 32 117 172 265 293 278 273 268 279 305 300 266 224 227 230 218 217 223 216 207 207 207 209 211 210 212 217 221 219 211 208 216 220 217 220 227 230 235 239 237 238 241 246 254 253 252 260 264 264 266 268 270 273 276 278 273 267 265 262 260
263 243 269 261 202 256 265 235 253 265 237 217 231 254 254 253 270 273 261 253 258 275 280 283 290 287 120 132 169 190 185 218 247 256 261 269 269 265 254 249 247 224 217 224 223 218 214 209 212 215 215 217 217 216 212 206 204 214 221 215 221 237 236 238 248 247 241 245 254 261 257 251 257 262 264 269 272 273 275 280 284 284 280 271 264 260
269 270 269 276 259 238 243 241 254 270 269 252 239 247 258 260 273 283 270 267 267 269 278 287 293 282 162 180 202 193 190 218 240 247 253 255 256 264 261 256 262 230 206 211 212 212 210 207 209 212 215 217 215 209 204 203 205 211 217 216 223 237 238 243 256 250 223 239 265 273 268 257 260 267 267 270 274 277 278 277 280 287 289 279 271 267
292 289 259 267 268 266 266 246 230 266 277 268 253 254 258 247 237 239 255 271 273 271 281 277 285 290 189 197 193 175 209 253 266 267 261 258 263 277 286 277 270 252 176 184 184 186 190 190 195 204 210 212 208 202 199 203 210 215 214 211 218 229 232 240 249 236 225 256 284 292 290 276 271 276 275 274 275 279 280 278 278 284 286 285 282 280
332 280 262 271 266 270 276 252 187 232 261 262 254 253 256 250 245 244 254 272 269 267 276 261 258 248 195 187 141 163 250 268 269 268 259 261 275 282 289 290 271 237 195 186 193 193 190 189 191 195 199 201 203 203 205 207 214 221 218 208 212 223 225 228 240 242 250 276 291 297 303 300 294 292 287 282 278 277 279 279 281 284 285 287 285 282
231 231 239 271 271 260 261 242 210 218 235 250 255 253 254 253 254 255 257 262 257 262 267 264 273 258 177 170 179 202 249 274 271 272 270 277 289 285 289 306 305 272 201 180 208 212 208 206 200 195 192 197 203 209 214 214 213 219 219 214 216 222 226 225 224 231 246 264 273 279 289 293 298 301 299 294 288 282 279 277 280 283 286 287 281 276
215 259 239 254 262 258 257 244 229 253 253 251 251 255 259 257 256 258 263 262 255 263 264 260 276 266 160 177 217 202 2 309 286 294 296 287 285 287 286 294 297 278 210 179 208 211 211 215 208 204 205 205 204 209 217 219 215 213 215 221 220 216 222 226 222 230 247 257 266 275 282 284 289 293 292 289 284 280 278 278 278 280 282 282 280 279
231 251 256 261 260 266 278 290 310 305 291 273 259 258 258 260 262 261 258 257 259 269 265 258 271 271 221 221 236 112 107 287 288 286 288 285 278 291 301 266 270 272 228 193 205 202 201 207 206 207 210 208 206 210 215 217 215 213 217 229 225 212 212 220 222 233 248 257 265 273 282 286 285 285 284 283 278 276 278 280 279 276 276 278 280 281
255 242 244 257 262 266 275 282 285 283 275 271 273 270 263 259 259 255 250 256 264 271 264 263 276 280 283 284 279 251 190 237 269 275 281 283 269 271 283 258 250 265 251 211 201 200 202 202 202 204 204 205 209 211 211 213 212 213 221 229 221 208 206 212 217 226 239 255 266 273 282 285 282 281 282 285 288 284 278 272 270 274 278 282 286 286
255 261 251 256 263 265 268 274 278 276 268 264 264 264 266 264 257 252 252 256 260 262 263 273 279 278 283 287 288 298 299 276 276 277 272 260 236 225 232 223 228 249 248 220 199 202 205 204 208 211 206 206 213 214 214 216 216 220 228 226 214 204 203 204 208 219 233 252 263 270 279 281 284 286 285 291 300 294 285 281 283 288 290 293 295 292
241 257 258 264 269 269 269 271 271 272 273 271 263 256 257 259 258 258 256 256 258 259 263 269 270 271 276 281 285 291 290 288 290 284 270 250 230 218 214 210 213 228 237 229 211 204 204 210 221 223 214 211 215 220 220 219 219 225 231 224 208 202 205 205 209 221 233 250 260 268 276 276 279 287 289 291 291 291 302 313 308 304 309 311 304 296
243 258 266 270 272 270 270 271 267 265 269 270 266 260 252 247 249 255 256 256 257 258 262 264 265 267 269 271 284 290 280 273 274 268 265 263 254 242 229 222 222 227 233 232 220 208 205 214 221 220 218 217 217 222 225 223 222 222 226 221 200 192 200 205 209 220 231 246 258 264 271 272 272 276 281 284 285 288 300 304 295 298 311 316 307 298
228 256 266 265 267 268 270 272 271 271 271 267 264 264 260 253 248 250 252 250 249 254 259 260 261 266 268 265 280 288 271 256 258 262 261 260 257 251 245 244 245 245 243 238 229 217 209 210 213 212 216 218 217 221 225 223 222 219 224 226 203 187 195 202 208 221 230 246 258 260 263 267 267 270 274 280 286 288 287 288 290 296 302 299 296 294
237 248 255 254 260 262 264 270 277 280 274 265 261 263 264 264 259 254 250 246 243 246 252 254 254 262 270 267 257 252 248 249 261 275 281 278 273 266 260 258 258 257 256 250 245 233 217 212 213 212 211 210 212 220 222 220 221 221 225 228 209 192 197 203 212 227 235 245 254 256 258 260 260 266 272 278 284 285 286 292 296 298 295 286 281 286
248 249 254 258 261 265 272 281 287 276 262 259 270 272 269 270 267 261 256 249 242 238 242 251 254 256 262 265 261 256 257 263 270 275 273 269 269 269 266 266 269 268 265 263 263 260 244 230 221 212 208 208 213 218 217 217 223 224 224 223 206 192 198 207 217 229 237 244 249 251 253 255 257 263 268 277 281 281 288 296 294 291 290 285 278 276
243 244 246 248 249 264 283 288 277 260 252 258 272 267 262 267 270 271 270 263 250 241 242 246 250 252 257 261 264 263 263 266 269 270 268 263 264 269 265 260 267 273 271 268 269 273 272 261 235 211 205 209 214 215 213 215 221 221 218 218 211 202 209 218 225 231 237 241 242 245 250 254 258 262 267 274 279 283 292 296 293 290 286 280 275 269
242 244 241 246 258 265 263 254 253 265 275 275 273 268 262 266 268 269 269 265 259 253 249 249 252 253 254 255 256 256 258 264 268 266 267 265 257 258 262 262 266 274 275 273 277 282 283 277 253 221 207 207 210 211 211 213 215 213 210 213 215 217 221 223 226 231 236 239 239 242 248 251 254 259 266 272 277 286 293 291 288 288 282 271 266 268
239 239 221 222 240 243 247 247 255 275 283 279 274 266 258 264 265 265 268 264 258 255 249 246 248 248 249 248 248 249 251 260 268 265 275 283 259 237 233 246 256 263 267 268 272 277 279 274 259 232 210 204 205 206 207 208 208 208 209 213 216 221 222 220 222 230 235 238 238 239 242 246 251 258 265 272 279 285 287 284 281 284 284 275 262 262
234 231 208 206 215 222 246 255 258 265 266 267 268 250 237 272 277 277 282 275 258 250 246 242 242 245 247 247 246 248 246 255 268 261 4 20 8 191 196 223 240 248 251 255 265 268 265 259 247 226 208 202 201 201 199 200 202 206 211 214 215 219 218 215 221 230 232 237 242 241 241 242 245 253 256 260 274 282 283 285 283 277 272 265 252 252
232 230 202 193 208 218 239 249 250 254 256 265 275 246 199 259 285 291 282 276 255 238 232 228 231 238 241 238 233 226 218 245 262 247 78 51 39 97 203 235 238 243 242 246 263 268 258 240 225 214 203 199 198 198 197 197 200 206 212 213 213 216 217 216 222 228 230 237 245 247 244 239 238 245 248 250 265 275 280 286 283 266 252 248 243 253
231 223 151 190 206 207 234 251 251 256 260 265 281 282 186 179 187 258 260 280 296 230 216 215 225 232 230 219 200 205 231 253 285 73 79 50 352 274 262 255 253 260 256 254 261 261 243 217 209 209 203 198 198 198 198 200 205 211 214 211 208 213 217 218 222 228 234 240 245 249 248 240 238 242 243 246 257 266 275 282 279 262 246 234 230 251
233 164 159 213 215 205 229 247 252 262 265 255 263 266 238 159 151 230 237 337 27 39 91 170 208 197 198 196 194 222 242 220 70 67 84 242 270 273 267 255 254 263 265 262 257 247 228 201 193 204 208 202 201 203 202 205 212 217 213 205 205 212 217 220 225 230 236 243 247 249 242 231 231 236 238 246 256 261 271 281 282 268 247 224 213 233
250 174 181 209 219 212 221 242 258 264 254 243 255 258 235 188 202 235 233 58 2 261 182 219 210 185 194 209 214 237 262 104 96 33 275 270 274 279 278 265 255 257 262 257 241 229 222 197 183 193 208 205 201 203 205 208 212 215 210 205 210 217 221 226 229 230 235 242 248 248 237 230 240 249 251 258 262 248 253 273 282 272 242 218 217 233
165 189 218 206 210 218 217 227 243 252 229 229 251 255 212 190 213 258 328 336 288 263 232 217 217 208 203 210 221 234 243 230 210 202 221 252 262 272 281 275 263 255 255 252 234 214 218 213 194 187 196 205 204 202 205 208 209 210 210 211 215 220 226 231 230 227 235 241 242 241 236 238 257 267 266 274 274 243 230 250 275 273 239 212 213 222
160 182 234 220 192 223 222 213 232 321 322 281 247 241 226 218 222 242 304 304 287 292 275 239 226 224 218 218 226 227 224 228 226 212 216 230 243 263 276 273 262 250 246 252 242 203 200 218 213 190 186 200 207 205 205 206 205 206 212 217 223 226 227 228 224 224 236 239 232 233 240 251 266 272 271 281 283 249 221 218 244 263 250 225 214 212
178 166 171 210 197 238 254 265 302 312 311 316 318 309 294 256 231 238 263 264 245 267 284 275 241 228 241 244 239 234 233 237 242 238 228 226 239 255 269 266 253 241 237 249 246 200 189 215 231 213 196 202 209 209 207 203 204 210 215 220 225 224 222 226 228 230 235 234 223 227 243 255 266 270 268 278 289 262 225 209 216 238 246 240 224 209
195 164 131 107 263 273 273 275 279 285 301 324 331 317 308 297 262 239 246 252 241 232 245 250 233 221 243 255 251 244 238 234 240 239 228 231 243 238 241 257 244 229 229 240 240 218 207 216 227 227 219 212 212 213 210 208 211 216 216 217 220 221 222 228 232 230 228 226 223 228 233 239 251 257 259 270 286 273 245 229 226 234 239 241 239 224
204 150 133 189 230 259 268 272 281 298 317 330 337 326 316 316 312 287 261 256 252 244 244 251 247 232 237 251 256 258 252 245 251 249 232 230 241 232 221 232 232 223 225 231 233 232 226 220 224 230 227 217 212 211 209 208 210 215 217 215 217 223 225 225 225 227 228 227 226 229 230 234 241 244 246 254 262 257 251 252 244 235 238 239 236 229
346 18 344 250 233 247 257 267 284 300 306 307 322 348 339 333 325 310 295 279 265 261 258 256 255 247 241 245 253 260 261 255 255 257 248 239 242 238 225 221 224 225 226 228 233 234 230 227 231 237 235 225 216 210 208 208 212 220 223 218 217 223 225 222 222 225 225 222 221 225 234 239 238 234 236 242 243 241 247 244 229 230 246 249 235 225
304 329 304 271 262 273 273 271 280 294 299 300 313 350 6 352 322 306 301 291 280 289 285 269 261 257 253 253 254 257 258 253 247 248 249 246 244 243 236 229 230 231 229 230 233 233 230 229 232 238 240 231 218 211 212 216 221 225 224 219 219 220 219 218 218 215 215 220 226 231 237 239 234 230 232 236 233 233 244 244 225 223 237 243 236 230
248 261 273 276 268 265 270 267 265 284 289 293 304 317 345 341 312 311 312 295 292 324 316 301 290 267 259 264 270 265 261 257 249 247 247 244 242 248 250 242 239 241 237 231 232 233 231 230 231 235 238 231 219 210 211 218 223 225 225 225 223 215 208 208 212 212 216 225 232 235 237 236 233 232 230 229 230 229 237 244 235 225 230 234 237 239
234 219 212 240 256 261 272 277 274 270 273 278 283 283 286 300 310 323 320 295 277 326 319 314 313 283 271 277 287 280 276 273 266 259 254 246 239 245 253 249 245 246 243 235 232 232 230 229 231 234 235 229 218 210 211 218 222 222 224 226 220 209 203 205 210 214 219 227 231 234 233 230 231 230 223 224 231 230 231 238 239 238 242 242 240 240
Height
1486 1490 1489 1487 1483 1479 1477 1475 1475 1478 1477 1478 1478 1475 1474 1476 1475 1470 1467 1461 1461 1473 1477 1475 1478 1477 1475 1475 1477 1482 1485 1485 1487 1491 1496 1501 1504 1507 1509 1511 1514 1516 1519 1520 1521 1522 1523 1524 1525 1525 1526 1526 1526 1526 1526 1525 1525 1525 1525 1525 1526 1526 1527 1528 1529 1531 1532 1534 1535 1536 1537 1539 1540 1541 1542 1543 1544 1545 1546 1547 1548 1551 1553 1555 1556 1557
1488 1492 1488 1481 1478 1478 1479 1476 1475 1480 1481 1481 1481 1479 1478 1476 1473 1468 1467 1465 1464 1475 1481 1478 1479 1479 1475 1472 1472 1478 1482 1482 1483 1487 1492 1498 1503 1507 1509 1512 1514 1516 1517 1519 1520 1521 1523 1524 1523 1524 1525 1525 1525 1525 1525 1525 1524 1524 1524 1524 1525 1525 1526 1527 1528 1529 1531 1532 1534 1535 1536 1537 1539 1539 1541 1542 1543 1544 1545 1546 1547 1549 1551 1553 1554 1555
1490 1491 1485 1479 1479 1481 1480 1478 1480 1483 1483 1484 1483 1483 1484 1478 1473 1470 1467 1465 1466 1473 1480 1479 1479 1478 1475 1472 1470 1473 1476 1479 1482 1485 1490 1496 1501 1505 1508 1511 1513 1515 1516 1518 1520 1522 1523 1523 1522 1523 1524 1524 1524 1524 1524 1523 1523 1523 1523 1523 1524 1524 1525 1526 1527 1528 1529 1531 1532 1533 1534 1536 1537 1538 1539 1540 1541 1542 1544 1544 1545 1547 1550 1552 1553 1553
1491 1488 1482 1480 1483 1484 1483 1482 1484 1486 1485 1486 1485 1486 1485 1476 1476 1478 1472 1468 1468 1471 1477 1478 1478 1476 1475 1472 1468 1468 1470 1476 1483 1487 1490 1495 1499 1503 1507 1509 1511 1513 1516 1517 1520 1522 1522 1522 1521 1522 1522 1522 1523 1523 1523 1522 1522 1522 1522 1523 1523 1523 1524 1525 1526 1527 1528 1529 1530 1532 1533 1534 1536 1537 1538 1539 1540 1541 1542 1543 1544 1547 1549 1550 1552 1552
1486 1482 1482 1485 1486 1486 1487 1485 1484 1487 1485 1483 1482 1483 1482 1476 1477 1479 1476 1474 1472 1474 1478 1482 1485 1481 1476 1476 1470 1466 1470 1478 1485 1489 1492 1495 1499 1502 1505 1508 1510 1512 1515 1517 1521 1522 1521 1520 1520 1520 1520 1521 1521 1521 1521 1521 1521 1521 1521 1522 1522 1523 1523 1524 1525 1526 1527 1528 1529 1530 1531 1533 1534 1535 1536 1537 1538 1539 1541 1542 1543 1546 1548 1549 1550 1551
1483 1481 1484 1488 1488 1487 1488 1485 1482 1484 1483 1481 1478 1477 1478 1479 1479 1479 1480 1482 1486 1489 1483 1484 1497 1492 1477 1474 1471 1467 1474 1482 1486 1489 1494 1498 1500 1503 1504 1507 1511 1513 1515 1518 1522 1522 1520 1519 1519 1519 1519 1520 1520 1520 1520 1520 1520 1520 1520 1520 1521 1522 1522 1523 1524 1525 1525 1526 1527 1528 1529 1531 1532 1533 1534 1535 1537 1538 1539 1540 1542 1544 1546 1547 1548 1549
1482 1483 1486 1488 1489 1487 1487 1486 1483 1482 1486 1487 1478 1475 1478 1478 1478 1477 1479 1488 1496 1496 1485 1483 1500 1501 1485 1477 1473 1469 1475 1485 1490 1492 1496 1500 1504 1506 1506 1506 1509 1513 1516 1520 1523 1521 1519 1518 1517 1517 1518 1519 1519 1519 1519 1519 1519 1519 1519 1519 1520 1521 1521 1522 1523 1523 1524 1525 1526 1527 1528 1529 1530 1532 1533 1534 1535 1536 1537 1539 1540 1542 1544 1545 1546 1547
1483 1484 1486 1486 1488 1489 1488 1487 1481 1478 1489 1491 1476 1474 1479 1478 1480 1480 1481 1489 1490 1487 1485 1482 1488 1497 1494 1483 1476 1473 1474 1483 1492 1495 1497 1502 1508 1512 1510 1507 1509 1513 1516 1519 1521 1519 1517 1517 1516 1516 1517 1518 1518 1518 1518 1518 1518 1518 1518 1519 1519 1520 1520 1521 1522 1522 1523 1524 1524 1526 1527 1528 1529 1530 1532 1533 1534 1535 1536 1537 1539 1540 1542 1543 1544 1545
1482 1484 1485 1484 1488 1490 1487 1483 1478 1477 1485 1485 1477 1479 1481 1480 1484 1485 1486 1489 1485 1489 1496 1488 1483 1496 1496 1481 1475 1475 1474 1481 1490 1494 1496 1500 1505 1510 1510 1509 1511 1515 1518 1518 1517 1516 1515 1516 1515 1515 1516 1516 1517 1517 1517 1517 1517 1517 1517 1518 1519 1519 1520 1520 1521 1521 1522 1523 1523 1524 1525 1527 1528 1529 1531 1532 1533 1534 1535 1536 1537 1538 1539 1541 1542 1543
1482 1484 1485 1486 1488 1487 1482 1480 1480 1482 1483 1479 1479 1484 1484 1484 1485 1486 1489 1488 1487 1497 1503 1491 1485 1498 1498 1481 1477 1481 1481 1486 1491 1492 1495 1498 1500 1502 1505 1508 1511 1515 1518 1517 1515 1513 1513 1514 1514 1514 1514 1515 1516 1516 1516 1516 1516 1516 1516 1517 1518 1519 1520 1520 1520 1521 1521 1522 1523 1523 1524 1525 1527 1528 1529 1531 1532 1533 1533 1535 1536 1536 1537 1538 1539 1540
1481 1482 1484 1486 1487 1486 1484 1484 1484 1485 1483 1481 1484 1487 1486 1486 1483 1483 1484 1484 1494 1505 1500 1488 1483 1492 1498 1487 1478 1481 1483 1486 1489 1490 1493 1496 1497 1497 1500 1505 1508 1511 1513 1513 1512 1511 1511 1512 1512 1513 1514 1515 1516 1516 1516 1516 1515 1515 1516 1516 1518 1518 1519 1519 1520 1520 1521 1522 1522 1523 1524 1524 1526 1527 1528 1530 1531 1532 1533 1533 1534 1535 1535 1536 1537 1537
1479 1481 1482 1481 1484 1486 1487 1488 1486 1484 1483 1485 1488 1489 1493 1492 1486 1487 1486 1488 1506 1511 1495 1484 1482 1490 1499 1489 1477 1475 1476 1479 1482 1487 1490 1492 1493 1494 1496 1500 1502 1505 1507 1507 1509 1509 1509 1511 1512 1513 1515 1516 1517 1516 1515 1515 1514 1515 1515 1516 1517 1517 1518 1519 1519 1520 1520 1521 1522 1522 1523 1524 1525 1526 1527 1528 1529 1531 1531 1532 1533 1533 1534 1534 1535 1536
1482 1481 1479 1479 1481 1484 1489 1491 1488 1483 1481 1485 1487 1490 1501 1503 1501 1505 1504 1502 1510 1507 1492 1485 1487 1494 1494 1484 1478 1476 1474 1476 1478 1482 1486 1488 1491 1492 1494 1496 1498 1500 1502 1503 1505 1507 1508 1510 1512 1513 1516 1517 1518 1517 1515 1514 1514 1514 1514 1515 1516 1517 1517 1518 1519 1519 1519 1520 1521 1522 1522 1523 1524 1524 1525 1526 1527 1529 1530 1531 1531 1532 1532 1533 1533 1534
1487 1480 1475 1478 1480 1481 1488 1493 1492 1486 1482 1484 1486 1491 1504 1511 1518 1522 1515 1511 1509 1500 1492 1491 1495 1498 1490 1482 1481 1477 1472 1474 1477 1480 1483 1484 1487 1489 1491 1494 1497 1499 1501 1502 1503 1504 1505 1508 1509 1511 1514 1517 1518 1518 1517 1515 1514 1514 1514 1514 1515 1516 1516 1517 1518 1518 1519 1519 1520 1521 1521 1522 1522 1523 1524 1525 1526 1527 1528 1529 1529 1530 1531 1531 1532 1533
1496 1491 1479 1476 1480 1482 1486 1488 1489 1487 1485 1486 1482 1487 1498 1505 1516 1523 1516 1515 1512 1501 1496 1497 1501 1501 1492 1484 1480 1475 1473 1475 1478 1480 1481 1483 1485 1487 1489 1492 1494 1496 1499 1501 1501 1501 1502 1504 1506 1507 1511 1515 1518 1519 1518 1516 1514 1513 1513 1514 1515 1515 1515 1516 1517 1517 1518 1519 1519 1520 1520 1521 1521 1522 1522 1523 1524 1525 1526 1527 1528 1528 1529 1530 1531 1531
1497 1495 1479 1475 1479 1482 1487 1485 1483 1488 1491 1488 1481 1485 1493 1493 1500 1509 1508 1505 1506 1507 1502 1497 1495 1487 1481 1479 1476 1476 1478 1477 1478 1480 1481 1483 1485 1487 1489 1490 1492 1494 1497 1499 1498 1499 1501 1503 1504 1505 1509 1513 1517 1519 1519 1517 1515 1514 1514 1514 1514 1514 1515 1516 1516 1517 1517 1518 1518 1519 1519 1519 1520 1520 1521 1522 1523 1524 1524 1525 1526 1527 1527 1528 1529 1529
1495 1493 1479 1479 1482 1480 1484 1483 1481 1488 1493 1488 1487 1490 1487 1484 1489 1501 1505 1498 1502 1515 1507 1493 1490 1480 1475 1479 1478 1478 1480 1477 1479 1480 1480 1483 1484 1486 1489 1489 1491 1493 1495 1497 1496 1497 1501 1502 1503 1505 1507 1511 1515 1518 1519 1518 1516 1515 1514 1514 1513 1513 1514 1515 1516 1516 1517 1517 1517 1518 1518 1518 1519 1519 1520 1520 1521 1522 1523 1524 1524 1525 1525 1526 1527 1527
1491 1492 1481 1478 1482 1477 1478 1483 1481 1483 1487 1489 1491 1488 1482 1484 1487 1495 1507 1506 1508 1515 1502 1488 1489 1485 1486 1491 1485 1479 1480 1479 1478 1478 1479 1481 1482 1485 1486 1487 1490 1492 1493 1494 1495 1497 1499 1501 1502 1504 1506 1508 1512 1516 1517 1517 1516 1515 1515 1514 1513 1513 1514 1515 1515 1516 1516 1516 1517 1517 1517 1517 1517 1518 1518 1519 1520 1520 1521 1522 1523 1523 1524 1524 1525 1525
1488 1496 1486 1474 1478 1477 1475 1485 1487 1482 1481 1485 1486 1482 1484 1496 1498 1497 1507 1514 1515 1515 1504 1492 1487 1487 1492 1495 1490 1484 1482 1480 1478 1477 1478 1479 1479 1480 1483 1485 1487 1488 1489 1491 1492 1495 1497 1499 1501 1502 1503 1504 1509 1515 1515 1515 1515 1514 1514 1514 1514 1514 1513 1514 1515 1515 1515 1515 1516 1516 1515 1516 1516 1517 1517 1518 1518 1519 1520 1521 1521 1522 1522 1522 1523 1523
1486 1499 1496 1478 1475 1478 1478 1485 1491 1485 1479 1480 1483 1481 1482 1491 1495 1495 1499 1504 1512 1516 1510 1501 1496 1494 1492 1488 1486 1486 1482 1480 1480 1477 1478 1479 1478 1478 1480 1483 1484 1485 1485 1487 1489 1492 1494 1496 1498 1499 1499 1501 1507 1512 1512 1513 1513 1512 1512 1513 1513 1514 1513 1514 1514 1514 1514 1514 1515 1515 1514 1515 1515 1516 1516 1517 1517 1518 1519 1519 1520 1520 1520 1521 1521 1522
1485 1493 1498 1485 1477 1484 1487 1484 1485 1483 1479 1481 1487 1487 1485 1484 1485 1489 1491 1490 1499 1509 1509 1506 1505 1498 1488 1481 1481 1482 1479 1479 1479 1478 1478 1478 1478 1478 1479 1480 1483 1483 1483 1484 1486 1488 1490 1492 1494 1495 1498 1502 1506 1508 1509 1510 1510 1510 1511 1511 1512 1513 1513 1513 1513 1513 1513 1513 1514 1514 1513 1514 1514 1515 1515 1516 1516 1517 1517 1518 1518 1518 1519 1519 1520 1520
1488 1491 1497 1493 1486 1488 1486 1478 1475 1477 1476 1480 1485 1486 1487 1488 1490 1501 1505 1492 1489 1500 1502 1505 1509 1496 1481 1478 1478 1477 1477 1477 1476 1476 1477 1477 1477 1478 1478 1479 1480 1482 1483 1484 1484 1486 1487 1490 1492 1496 1501 1504 1506 1506 1507 1508 1508 1509 1510 1510 1511 1512 1512 1513 1512 1513 1513 1513 1513 1513 1512 1513 1513 1514 1514 1514 1515 1515 1516 1516 1516 1517 1517 1518 1518 1518
1487 1490 1494 1495 1490 1484 1477 1471 1473 1476 1474 1477 1480 1480 1481 1485 1490 1505 1512 1499 1493 1498 1495 1500 1510 1496 1477 1473 1474 1474 1475 1475 1475 1475 1475 1475 1477 1477 1477 1478 1479 1481 1482 1484 1485 1486 1487 1489 1493 1497 1501 1503 1504 1504 1505 1506 1507 1508 1508 1508 1509 1510 1511 1512 1512 1512 1513 1512 1512 1512 1512 1512 1512 1513 1513 1513 1514 1514 1514 1514 1515 1515 1516 1516 1516 1516
1487 1492 1497 1496 1488 1479 1473 1469 1470 1474 1477 1479 1479 1477 1478 1481 1482 1488 1492 1490 1494 1498 1495 1501 1508 1494 1477 1473 1473 1474 1475 1474 1474 1474 1474 1476 1476 1477 1478 1479 1479 1480 1481 1483 1486 1487 1488 1490 1492 1495 1498 1499 1501 1502 1503 1504 1505 1506 1505 1505 1506 1508 1509 1510 1511 1511 1512 1512 1512 1511 1511 1512 1512 1512 1512 1512 1512 1513 1513 1513 1513 1513 1514 1514 1514 1515
1491 1494 1500 1504 1500 1493 1484 1478 1477 1476 1478 1481 1479 1476 1477 1476 1476 1478 1478 1482 1491 1492 1489 1498 1500 1486 1476 1474 1472 1472 1473 1473 1473 1473 1474 1476 1476 1477 1477 1477 1480 1481 1480 1482 1484 1486 1487 1488 1490 1492 1494 1496 1498 1500 1501 1501 1502 1502 1502 1503 1504 1506 1508 1508 1509 1510 1510 1511 1511 1511 1511 1511 1511 1511 1511 1511 1511 1511 1511 1511 1511 1511 1511 1512 1512 1513
1492 1493 1496 1505 1509 1506 1497 1490 1487 1482 1479 1479 1479 1477 1476 1474 1475 1478 1481 1486 1492 1487 1483 1489 1488 1478 1473 1473 1472 1472 1472 1473 1473 1473 1474 1475 1475 1476 1476 1478 1482 1483 1481 1481 1483 1485 1486 1487 1488 1490 1491 1493 1495 1497 1498 1499 1499 1499 1500 1501 1503 1505 1507 1507 1507 1508 1509 1510 1510 1511 1511 1511 1511 1511 1510 1510 1510 1509 1509 1509 1510 1510 1510 1509 1510 1510
1489 1492 1493 1496 1498 1496 1491 1485 1483 1482 1482 1482 1481 1478 1477 1475 1473 1476 1484 1489 1488 1485 1483 1480 1476 1475 1473 1472 1473 1474 1473 1473 1473 1473 1474 1474 1474 1476 1476 1477 1481 1482 1481 1481 1482 1484 1486 1487 1488 1489 1490 1492 1493 1494 1496 1497 1497 1498 1499 1500 1502 1503 1505 1505 1506 1506 1508 1508 1509 1510 1510 1510 1510 1509 1509 1509 1508 1508 1508 1508 1508 1508 1508 1507 1507 1508
1488 1491 1490 1491 1490 1487 1484 1480 1479 1481 1482 1483 1483 1481 1478 1477 1475 1478 1484 1483 1480 1485 1486 1475 1469 1473 1472 1468 1470 1471 1470 1471 1471 1471 1473 1473 1473 1475 1475 1475 1476 1478 1480 1480 1482 1484 1484 1486 1487 1488 1489 1491 1492 1493 1494 1495 1495 1496 1497 1499 1500 1501 1502 1503 1504 1505 1506 1507 1508 1509 1509 1509 1508 1508 1508 1508 1507 1507 1507 1506 1506 1506 1506 1506 1506 1506
1489 1491 1487 1486 1488 1484 1480 1479 1478 1478 1478 1477 1479 1481 1480 1478 1477 1478 1480 1477 1476 1482 1482 1473 1470 1473 1470 1466 1467 1467 1467 1468 1468 1468 1470 1471 1471 1472 1473 1473 1474 1476 1478 1479 1481 1482 1482 1483 1484 1485 1487 1489 1490 1492 1492 1492 1493 1493 1495 1497 1498 1499 1500 1501 1502 1503 1504 1506 1507 1507 1507 1507 1507 1506 1506 1507 1507 1506 1506 1505 1505 1505 1505 1505 1504 1504
1487 1489 1485 1485 1487 1483 1480 1479 1477 1476 1476 1475 1475 1476 1477 1477 1477 1476 1475 1473 1473 1475 1473 1470 1471 1470 1466 1465 1464 1464 1465 1466 1466 1467 1468 1468 1468 1469 1470 1471 1472 1474 1476 1476 1477 1478 1479 1480 1481 1483 1485 1485 1487 1489 1490 1490 1491 1492 1494 1495 1496 1497 1498 1499 1500 1501 1503 1504 1505 1506 1506 1506 1506 1506 1506 1506 1506 1506 1505 1505 1505 1504 1504 1504 1503 1503
1486 1488 1484 1486 1490 1486 1481 1478 1475 1474 1475 1476 1474 1470 1470 1472 1473 1473 1473 1472 1472 1472 1469 1468 1470 1467 1463 1462 1461 1462 1464 1464 1465 1466 1465 1466 1467 1467 1468 1469 1469 1470 1472 1473 1474 1474 1475 1477 1478 1480 1481 1482 1484 1486 1488 1489 1490 1491 1493 1494 1494 1495 1497 1498 1499 1499 1501 1503 1503 1504 1505 1505 1505 1505 1505 1505 1505 1505 1505 1505 1504 1503 1503 1503 1503 1501
1487 1490 1487 1489 1496 1491 1482 1479 1475 1471 1474 1476 1473 1469 1466 1466 1467 1469 1469 1468 1469 1471 1470 1470 1470 1466 1460 1459 1460 1462 1462 1463 1464 1463 1463 1464 1465 1465 1465 1466 1466 1467 1467 1469 1470 1471 1472 1473 1475 1476 1478 1479 1481 1484 1486 1488 1489 1490 1492 1493 1492 1493 1495 1496 1497 1498 1500 1501 1502 1503 1503 1503 1503 1504 1504 1504 1504 1504 1504 1503 1503 1502 1503 1503 1502 1500
1486 1490 1489 1492 1498 1492 1483 1479 1475 1475 1482 1481 1471 1466 1464 1462 1463 1464 1463 1462 1463 1465 1468 1469 1466 1461 1458 1457 1459 1460 1460 1461 1461 1461 1462 1462 1462 1463 1463 1463 1464 1464 1465 1466 1467 1468 1469 1470 1471 1473 1475 1477 1480 1482 1484 1486 1487 1489 1491 1491 1491 1491 1493 1494 1495 1497 1498 1499 1501 1501 1501 1502 1502 1502 1503 1503 1503 1503 1502 1502 1502 1501 1501 1501 1501 1500
1486 1488 1490 1495 1501 1496 1485 1478 1479 1487 1492 1480 1464 1460 1462 1461 1461 1462 1460 1457 1456 1457 1460 1460 1457 1456 1456 1456 1456 1457 1457 1458 1459 1460 1460 1460 1461 1461 1461 1462 1462 1463 1463 1464 1465 1466 1467 1468 1469 1470 1472 1475 1478 1480 1482 1484 1486 1487 1489 1489 1489 1489 1491 1493 1494 1496 1497 1498 1499 1499 1500 1500 1501 1501 1501 1501 1501 1501 1501 1501 1500 1500 1500 1500 1500 1499
1486 1488 1490 1494 1498 1496 1488 1487 1494 1496 1484 1467 1458 1457 1458 1458 1458 1458 1456 1453 1451 1452 1453 1453 1453 1453 1453 1454 1454 1455 1455 1456 1457 1457 1457 1458 1459 1459 1459 1460 1461 1461 1462 1463 1464 1465 1466 1467 1468 1469 1470 1473 1476 1478 1480 1482 1484 1485 1486 1488 1488 1489 1490 1492 1493 1495 1496 1497 1497 1498 1498 1499 1499 1500 1500 1500 1500 1500 1500 1499 1499 1499 1499 1499 1499 1498
1484 1486 1488 1489 1492 1494 1493 1494 1495 1485 1466 1458 1458 1456 1456 1457 1457 1458 1459 1454 1450 1450 1450 1450 1451 1450 1451 1452 1452 1453 1454 1454 1455 1455 1456 1456 1456 1457 1458 1459 1460 1461 1461 1462 1463 1464 1465 1466 1467 1468 1469 1471 1474 1476 1478 1480 1482 1483 1484 1486 1487 1488 1489 1490 1492 1493 1494 1495 1496 1496 1497 1498 1498 1498 1498 1498 1498 1498 1498 1498 1497 1498 1498 1498 1498 1496
1479 1481 1486 1491 1492 1493 1494 1490 1482 1474 1467 1463 1460 1456 1456 1460 1459 1459 1461 1456 1449 1448 1448 1448 1449 1449 1449 1449 1450 1450 1452 1452 1453 1454 1454 1453 1453 1454 1456 1458 1459 1460 1461 1461 1463 1463 1464 1465 1466 1466 1468 1469 1471 1474 1476 1478 1480 1481 1483 1484 1485 1486 1488 1489 1490 1492 1493 1494 1494 1495 1495 1496 1496 1496 1496 1497 1497 1497 1497 1496 1496 1497 1497 1497 1497 1496
1473 1475 1481 1489 1489 1487 1491 1491 1484 1482 1477 1466 1457 1453 1454 1457 1455 1455 1459 1457 1448 1445 1445 1445 1446 1447 1446 1446 1448 1449 1450 1453 1454 1452 1452 1453 1452 1453 1456 1457 1459 1460 1460 1461 1462 1462 1463 1464 1464 1466 1466 1467 1469 1472 1474 1476 1478 1479 1481 1482 1483 1485 1486 1487 1489 1490 1491 1492 1493 1493 1494 1494 1495 1495 1495 1495 1495 1495 1495 1495 1495 1496 1497 1496 1496 1495
1466 1469 1475 1484 1486 1485 1490 1491 1486 1481 1472 1460 1453 1450 1451 1455 1453 1454 1463 1460 1445 1440 1443 1443 1443 1445 1444 1445 1447 1448 1452 1456 1454 1451 1452 1454 1454 1455 1456 1457 1458 1459 1459 1460 1461 1461 1462 1462 1463 1465 1465 1466 1468 1470 1472 1474 1476 1478 1479 1480 1481 1483 1484 1486 1488 1489 1489 1490 1491 1492 1492 1492 1492 1493 1493 1494 1494 1493 1493 1493 1494 1495 1494 1494 1494 1493
1465 1473 1478 1482 1484 1485 1488 1487 1479 1471 1462 1454 1451 1449 1451 1453 1452 1462 1474 1462 1439 1435 1439 1440 1441 1443 1443 1445 1447 1448 1451 1454 1452 1451 1453 1455 1455 1456 1457 1457 1458 1458 1458 1459 1459 1460 1460 1461 1463 1464 1465 1466 1468 1469 1471 1473 1474 1476 1477 1478 1480 1481 1483 1484 1486 1487 1488 1489 1489 1490 1490 1489 1490 1491 1492 1493 1493 1492 1491 1491 1492 1493 1492 1492 1493 1493
1470 1478 1483 1482 1482 1484 1487 1486 1477 1465 1455 1451 1450 1449 1449 1453 1459 1469 1470 1454 1439 1439 1441 1440 1442 1444 1444 1446 1448 1448 1450 1451 1452 1453 1454 1454 1455 1456 1456 1456 1457 1457 1457 1458 1458 1459 1459 1460 1462 1464 1465 1466 1467 1469 1470 1472 1473 1474 1475 1476 1478 1480 1481 1483 1484 1485 1486 1487 1488 1488 1488 1487 1488 1489 1490 1491 1491 1491 1490 1489 1490 1491 1491 1491 1492 1492
1476 1480 1481 1481 1481 1481 1483 1484 1480 1467 1452 1447 1448 1447 1448 1456 1464 1461 1452 1444 1443 1445 1444 1443 1445 1445 1445 1447 1448 1448 1450 1450 1452 1454 1454 1455 1455 1455 1455 1456 1456 1456 1457 1457 1457 1458 1458 1459 1460 1462 1464 1465 1466 1468 1469 1470 1472 1473 1474 1475 1477 1478 1480 1481 1482 1483 1484 1485 1486 1486 1485 1485 1486 1487 1488 1489 1489 1490 1489 1487 1488 1489 1489 1490 1490 1490
1476 1479 1480 1478 1477 1479 1480 1482 1482 1471 1452 1444 1447 1447 1447 1452 1454 1449 1444 1444 1445 1444 1444 1446 1446 1445 1447 1448 1447 1449 1450 1450 1452 1453 1453 1455 1455 1455 1455 1455 1455 1455 1456 1455 1456 1457 1458 1459 1459 1460 1462 1464 1465 1466 1468 1469 1470 1471 1473 1474 1475 1477 1479 1480 1481 1482 1483 1484 1484 1483 1482 1483 1484 1485 1486 1486 1487 1488 1488 1486 1486 1487 1488 1488 1488 1488
1469 1474 1475 1473 1472 1475 1475 1470 1466 1459 1449 1444 1446 1447 1446 1447 1446 1444 1445 1445 1445 1445 1446 1446 1446 1446 1447 1447 1448 1449 1450 1450 1451 1452 1452 1453 1454 1454 1454 1454 1454 1455 1455 1455 1455 1455 1457 1459 1459 1459 1461 1462 1464 1465 1466 1468 1469 1470 1472 1473 1474 1476 1477 1478 1479 1480 1481 1482 1482 1481 1481 1482 1483 1484 1484 1484 1485 1485 1485 1485 1485 1486 1486 1486 1486 1486
1463 1464 1467 1467 1467 1469 1467 1459 1453 1453 1451 1447 1446 1445 1446 1446 1444 1444 1445 1444 1445 1446 1446 1446 1446 1447 1447 1448 1448 1449 1449 1449 1450 1450 1451 1452 1453 1453 1453 1453 1453 1454 1454 1454 1455 1455 1456 1458 1458 1459 1460 1461 1462 1464 1464 1466 1467 1468 1470 1471 1473 1475 1475 1476 1477 1478 1479 1480 1480 1480 1480 1480 1481 1482 1482 1482 1483 1483 1483 1484 1484 1485 1485 1485 1485 1485
1459 1460 1463 1464 1465 1465 1462 1457 1455 1455 1453 1449 1446 1446 1447 1447 1445 1444 1444 1444 1444 1445 1445 1446 1447 1446 1447 1449 1448 1447 1448 1448 1449 1449 1450 1451 1451 1452 1452 1453 1453 1453 1454 1454 1454 1454 1456 1457 1458 1458 1459 1460 1461 1462 1463 1464 1465 1466 1468 1470 1471 1473 1474 1474 1476 1476 1477 1478 1478 1479 1480 1480 1480 1481 1481 1481 1482 1482 1482 1482 1483 1484 1484 1484 1484 1484
1458 1462 1463 1462 1464 1466 1462 1457 1454 1454 1451 1449 1448 1448 1447 1446 1444 1444 1444 1444 1443 1444 1444 1444 1445 1445 1447 1448 1448 1447 1447 1447 1447 1448 1448 1449 1450 1450 1451 1452 1452 1452 1453 1453 1453 1454 1455 1455 1456 1457 1458 1458 1459 1460 1461 1463 1464 1465 1467 1468 1469 1471 1472 1473 1474 1474 1474 1475 1476 1478 1479 1480 1480 1480 1480 1481 1481 1481 1481 1481 1481 1482 1482 1483 1483 1483
1461 1465 1464 1463 1463 1463 1460 1455 1452 1451 1449 1449 1449 1449 1447 1446 1445 1445 1444 1443 1442 1443 1443 1443 1443 1444 1444 1445 1446 1447 1446 1446 1447 1447 1447 1448 1449 1449 1449 1450 1451 1451 1452 1452 1452 1453 1453 1454 1455 1455 1456 1457 1458 1459 1460 1461 1462 1464 1465 1466 1467 1469 1470 1471 1472 1472 1472 1474 1475 1476 1478 1478 1479 1480 1480 1480 1480 1480 1481 1480 1480 1480 1481 1482 1482 1482
1464 1466 1465 1463 1462 1461 1457 1452 1450 1450 1448 1447 1448 1448 1447 1448 1449 1448 1445 1442 1441 1441 1442 1442 1443 1443 1443 1444 1444 1444 1444 1445 1445 1446 1446 1446 1447 1447 1448 1449 1449 1450 1451 1451 1451 1452 1452 1453 1453 1454 1455 1455 1455 1457 1459 1460 1461 1463 1463 1464 1465 1466 1467 1469 1469 1470 1471 1473 1474 1475 1476 1477 1477 1478 1479 1479 1479 1479 1480 1480 1480 1479 1479 1480 1481 1481
1463 1464 1464 1464 1463 1460 1455 1450 1449 1450 1448 1446 1446 1447 1446 1448 1449 1448 1445 1443 1441 1441 1442 1442 1442 1443 1444 1443 1443 1443 1443 1443 1443 1444 1444 1444 1445 1446 1447 1447 1448 1449 1449 1449 1450 1450 1450 1451 1451 1452 1453 1453 1453 1455 1456 1458 1460 1461 1462 1462 1463 1464 1465 1466 1467 1468 1470 1472 1473 1474 1475 1475 1476 1476 1477 1478 1478 1478 1478 1479 1479 1479 1478 1479 1480 1480
1458 1457 1458 1461 1460 1456 1451 1448 1447 1448 1446 1444 1445 1445 1445 1445 1446 1445 1444 1443 1441 1441 1442 1443 1443 1444 1444 1443 1442 1443 1442 1442 1442 1443 1442 1443 1444 1445 1445 1446 1446 1447 1447 1448 1448 1448 1449 1449 1450 1450 1451 1451 1452 1453 1454 1456 1458 1459 1460 1461 1461 1462 1462 1463 1464 1467 1469 1471 1472 1472 1473 1474 1474 1475 1475 1476 1476 1476 1476 1477 1478 1478 1478 1478 1479 1479